{"data":{"norad_id":56801,"intl_designator":"2023-078AL","name":"STARLINK-6087","alt_names":[],"object_type":"PAYLOAD","status":"ACTIVE","operator":null,"country":"US","launch_date":"2023-05-31","launch_site_code":"AFWTR","launch_vehicle":null,"mission":null,"orbit_class":"UNKNOWN","rcs_meters":null,"size_class":null,"mass_kg":null,"dimensions":null,"purposes":["comms"],"wikipedia_slug":null,"has_3d_model":false,"image_url":null,"decayed_at":null,"tle_current":{"epoch":"2026-05-25T02:39:20.503008Z","epoch_age_seconds":58745,"freshness":"FRESH","line1":"1 56801U 23078AL  26145.11065397  .00000474  00000+0  47523-4 0  9999","line2":"2 56801  69.9987 131.6512 0003719 269.0818  90.9915 14.98328637164626","mean_motion":14.98328637,"eccentricity":0.0003719,"inclination_deg":69.9987,"raan_deg":131.6512,"arg_perigee_deg":269.0818,"mean_anomaly_deg":90.9915,"bstar":4.7523e-5,"rev_number":16462,"period_min":96.107086552334,"perigee_km":569.47532760899,"apogee_km":574.64488421637,"semimajor_km":6950.1971059127,"source":"CELESTRAK","updated_at":"2026-05-25T13:38:18.158482Z"}}}